Location: Dal�� Lhota
(48.7500°N, 14.0167°E)
Time: 00:16:20
(UTC+00:00)

Vanguard 3 - Pass Details

Date: 09 August 2021
Orbit: 510 x 3260 km, 33.3° (Epoch: 19 September)

Event Time Altitude Azimuth Distance (km) Brightness Sun altitude
Rises 21:21:20 0° 272° (W) 6,502 12.2 -21.3°
Reaches altitude 10° 21:27:31 10° 256° (WSW) 5,844 11.6 -21.8°
Maximum altitude 21:38:06 18° 221° (SW) 5,461 11.1 -22.5°
Enters shadow 21:45:59 14° 195° (SSW) 5,823 11.0 -23.1°
Drops below altitude 10° 21:49:13 10° 186° (S) 6,103 - -23.2°
Sets 21:56:04 0° 171° (S) 6,878 - -23.6°
